When you browse on this site, cookies collect data to enhance your experience and personalize the content and advertising you see.
Visit our Privacy Policy to learn more. By continuing to use the site, you agree to this use of cookies and data.
  • En España
  • Lista de países
  • Para 7 días
  • Temperatura del agua
  • Mapa Satelital
  • El tiempo en el mapa
  • Informadores
  • user-avatar
    Iniciar sesión

    Tiempo cada hora Mauritius

    Hoy, 16 Enero, Miércoles

    Tiempo Temperatura Precipitaciones Viento Presión Humedad
    00:00 +26°C° 0 mm 3 mps 724 mmHg 81%
    01:00 +26°C° 0 mm 3 mps 724 mmHg 81%
    02:00 +26°C° 0 mm 3 mps 724 mmHg 81%
    03:00 +25°C° 0 mm 3 mps 724 mmHg 81%
    04:00 +25°C° 0 mm 3 mps 724 mmHg 81%
    05:00 +26°C° 0 mm 3 mps 724 mmHg 80%
    06:00 +26°C° 0 mm 3 mps 724 mmHg 79%
    07:00 +26°C° 0 mm 3 mps 724 mmHg 78%
    08:00 +27°C° 0 mm 3 mps 724 mmHg 75%
    09:00 +28°C° 0 mm 3 mps 725 mmHg 71%
    10:00 +29°C° 0 mm 3 mps 725 mmHg 68%
    11:00 +29°C° 0.8 mm 3 mps 724 mmHg 67%
    12:00 +29°C° 0.8 mm 4 mps 724 mmHg 67%
    13:00 +29°C° 0.8 mm 4 mps 724 mmHg 67%
    14:00 +29°C° 1.7 mm 4 mps 724 mmHg 69%
    15:00 +29°C° 1.7 mm 4 mps 723 mmHg 71%
    16:00 +28°C° 1.7 mm 4 mps 723 mmHg 73%
    17:00 +28°C° 1.4 mm 4 mps 723 mmHg 74%
    18:00 +27°C° 1.4 mm 4 mps 723 mmHg 76%
    19:00 +27°C° 1.4 mm 4 mps 723 mmHg 78%
    20:00 +27°C° 0.4 mm 4 mps 723 mmHg 80%
    21:00 +27°C° 0.4 mm 4 mps 723 mmHg 81%
    22:00 +26°C° 0.4 mm 4 mps 724 mmHg 83%
    23:00 +26°C° 0.3 mm 4 mps 723 mmHg 83%

    Mañana, 17 Enero, Jueves

    Tiempo Temperatura Precipitaciones Viento Presión Humedad
    00:00 +26°C° 0.3 mm 4 mps 723 mmHg 84%
    01:00 +26°C° 0.3 mm 4 mps 723 mmHg 84%
    02:00 +26°C° 1.1 mm 4 mps 723 mmHg 85%
    03:00 +26°C° 1.1 mm 4 mps 723 mmHg 85%
    04:00 +26°C° 1.1 mm 4 mps 723 mmHg 85%
    05:00 +26°C° 1.4 mm 4 mps 723 mmHg 85%
    06:00 +26°C° 1.4 mm 4 mps 723 mmHg 84%
    07:00 +26°C° 1.4 mm 4 mps 723 mmHg 84%
    08:00 +27°C° 1 mm 4 mps 724 mmHg 81%
    09:00 +28°C° 1 mm 4 mps 724 mmHg 78%
    10:00 +28°C° 1 mm 4 mps 724 mmHg 75%
    11:00 +29°C° 0.8 mm 4 mps 724 mmHg 73%
    12:00 +29°C° 0.8 mm 4 mps 723 mmHg 71%
    13:00 +30°C° 0.8 mm 4 mps 723 mmHg 69%
    14:00 +30°C° 0.4 mm 4 mps 723 mmHg 70%
    15:00 +29°C° 0.4 mm 4 mps 722 mmHg 71%
    16:00 +29°C° 0.4 mm 4 mps 722 mmHg 72%
    17:00 +28°C° 0.6 mm 4 mps 722 mmHg 75%
    18:00 +28°C° 0.6 mm 4 mps 722 mmHg 78%
    19:00 +27°C° 0.6 mm 4 mps 722 mmHg 81%
    20:00 +27°C° 0.2 mm 4 mps 723 mmHg 82%
    21:00 +27°C° 0.2 mm 4 mps 723 mmHg 83%
    22:00 +27°C° 0.2 mm 4 mps 723 mmHg 84%
    23:00 +27°C° 0 mm 4 mps 723 mmHg 84%

    Pasado mañana, 18 Enero, Viernes

    Tiempo Temperatura Precipitaciones Viento Presión Humedad
    00:00 +26°C° 0 mm 3 mps 723 mmHg 85%
    01:00 +26°C° 0 mm 3 mps 723 mmHg 85%
    02:00 +26°C° 0.1 mm 3 mps 722 mmHg 85%
    03:00 +26°C° 0.1 mm 3 mps 722 mmHg 85%
    04:00 +26°C° 0.1 mm 3 mps 722 mmHg 85%
    05:00 +26°C° 0.1 mm 3 mps 723 mmHg 83%
    06:00 +27°C° 0.1 mm 3 mps 723 mmHg 82%
    07:00 +27°C° 0.1 mm 3 mps 723 mmHg 81%
    08:00 +28°C° 0.1 mm 3 mps 723 mmHg 77%
    09:00 +28°C° 0.1 mm 3 mps 724 mmHg 73%
    10:00 +29°C° 0.1 mm 4 mps 724 mmHg 69%
    11:00 +30°C° 0.2 mm 4 mps 724 mmHg 68%
    12:00 +30°C° 0.2 mm 4 mps 723 mmHg 66%
    13:00 +30°C° 0.2 mm 4 mps 723 mmHg 65%
    14:00 +30°C° 0.4 mm 4 mps 723 mmHg 65%
    15:00 +30°C° 0.4 mm 4 mps 722 mmHg 65%
    16:00 +30°C° 0.4 mm 4 mps 722 mmHg 65%
    17:00 +29°C° 0.1 mm 4 mps 722 mmHg 68%
    18:00 +28°C° 0.1 mm 4 mps 722 mmHg 71%
    19:00 +28°C° 0.1 mm 3 mps 722 mmHg 75%
    20:00 +28°C° 0.2 mm 3 mps 723 mmHg 77%
    21:00 +27°C° 0.2 mm 3 mps 723 mmHg 79%
    22:00 +27°C° 0.2 mm 3 mps 724 mmHg 81%
    23:00 +27°C° 0.1 mm 3 mps 724 mmHg 82%

    19 Enero, Sábado

    Tiempo Temperatura Precipitaciones Viento Presión Humedad
    00:00 +27°C° 0.1 mm 3 mps 723 mmHg 83%
    01:00 +27°C° 0.1 mm 3 mps 723 mmHg 84%
    02:00 +26°C° 0.3 mm 3 mps 723 mmHg 84%
    03:00 +26°C° 0.3 mm 3 mps 723 mmHg 84%
    04:00 +26°C° 0.3 mm 2 mps 722 mmHg 84%
    05:00 +26°C° 0.1 mm 2 mps 723 mmHg 83%
    06:00 +26°C° 0.1 mm 3 mps 723 mmHg 82%
    07:00 +27°C° 0.1 mm 3 mps 723 mmHg 81%
    08:00 +28°C° 0 mm 3 mps 724 mmHg 77%
    09:00 +28°C° 0 mm 3 mps 724 mmHg 72%
    10:00 +29°C° 0 mm 3 mps 724 mmHg 68%
    11:00 +30°C° 0.1 mm 3 mps 724 mmHg 66%
    12:00 +30°C° 0.1 mm 3 mps 724 mmHg 63%
    13:00 +31°C° 0.1 mm 3 mps 723 mmHg 61%
    14:00 +30°C° 0 mm 3 mps 723 mmHg 61%
    15:00 +30°C° 0 mm 3 mps 723 mmHg 62%
    16:00 +30°C° 0 mm 3 mps 722 mmHg 62%
    17:00 +29°C° 0 mm 3 mps 722 mmHg 66%
    18:00 +29°C° 0 mm 3 mps 723 mmHg 70%
    19:00 +28°C° 0 mm 3 mps 723 mmHg 73%
    20:00 +28°C° 0 mm 3 mps 723 mmHg 75%
    21:00 +27°C° 0 mm 3 mps 724 mmHg 77%
    22:00 +27°C° 0 mm 3 mps 724 mmHg 79%
    23:00 +27°C° 0 mm 3 mps 724 mmHg 80%

    20 Enero, Domingo

    Tiempo Temperatura Precipitaciones Viento Presión Humedad
    00:00 +27°C° 0 mm 3 mps 723 mmHg 80%
    01:00 +26°C° 0 mm 3 mps 723 mmHg 81%
    02:00 +26°C° 0 mm 3 mps 723 mmHg 82%
    03:00 +26°C° 0 mm 3 mps 722 mmHg 82%
    04:00 +26°C° 0 mm 3 mps 722 mmHg 83%
    05:00 +26°C° 0.1 mm 3 mps 723 mmHg 82%
    06:00 +26°C° 0.1 mm 3 mps 723 mmHg 81%
    07:00 +27°C° 0.1 mm 3 mps 723 mmHg 80%
    08:00 +27°C° 0.8 mm 3 mps 724 mmHg 77%
    09:00 +28°C° 0.8 mm 4 mps 724 mmHg 73%
    10:00 +29°C° 0.8 mm 4 mps 724 mmHg 70%
    11:00 +29°C° 0.3 mm 4 mps 724 mmHg 69%
    12:00 +30°C° 0.3 mm 4 mps 723 mmHg 68%
    13:00 +30°C° 0.3 mm 4 mps 723 mmHg 66%
    14:00 +30°C° 0 mm 4 mps 723 mmHg 65%
    15:00 +30°C° 0 mm 4 mps 723 mmHg 65%
    16:00 +30°C° 0 mm 4 mps 722 mmHg 64%
    17:00 +29°C° 0 mm 3 mps 723 mmHg 67%
    18:00 +28°C° 0 mm 3 mps 723 mmHg 70%
    19:00 +28°C° 0 mm 3 mps 723 mmHg 74%
    20:00 +27°C° 0 mm 3 mps 724 mmHg 75%
    21:00 +27°C° 0 mm 3 mps 724 mmHg 77%
    22:00 +27°C° 0 mm 3 mps 725 mmHg 79%
    23:00 +26°C° 0 mm 3 mps 724 mmHg 79%

    21 Enero, Lunes

    Tiempo Temperatura Precipitaciones Viento Presión Humedad
    00:00 +26°C° 0 mm 3 mps 724 mmHg 80%
    01:00 +26°C° 0 mm 3 mps 724 mmHg 81%
    02:00 +26°C° 0 mm 3 mps 723 mmHg 81%
    03:00 +26°C° 0 mm 3 mps 723 mmHg 81%
    04:00 +26°C° 0 mm 3 mps 723 mmHg 81%
    05:00 +26°C° 0 mm 3 mps 723 mmHg 80%
    06:00 +26°C° 0 mm 3 mps 724 mmHg 79%
    07:00 +26°C° 0 mm 3 mps 724 mmHg 79%
    08:00 +27°C° 0 mm 3 mps 724 mmHg 75%
    09:00 +28°C° 0 mm 4 mps 725 mmHg 72%
    10:00 +29°C° 0 mm 4 mps 725 mmHg 68%
    11:00 +29°C° 0.2 mm 4 mps 724 mmHg 67%
    12:00 +29°C° 0.2 mm 4 mps 724 mmHg 67%
    13:00 +30°C° 0.2 mm 5 mps 724 mmHg 66%
    14:00 +29°C° 0.3 mm 5 mps 724 mmHg 67%
    15:00 +29°C° 0.3 mm 5 mps 723 mmHg 68%
    16:00 +29°C° 0.3 mm 5 mps 723 mmHg 69%
    17:00 +28°C° 0 mm 5 mps 723 mmHg 71%
    18:00 +27°C° 0 mm 5 mps 723 mmHg 74%
    19:00 +27°C° 0 mm 4 mps 724 mmHg 77%
    20:00 +27°C° 0 mm 4 mps 724 mmHg 78%
    21:00 +26°C° 0 mm 4 mps 724 mmHg 79%
    22:00 +26°C° 0 mm 4 mps 725 mmHg 80%
    23:00 +26°C° 0 mm 4 mps 724 mmHg 79%
    Mostrar más